{"data":{"norad_id":63483,"intl_designator":"2025-070Z","name":"STARLINK-33688","alt_names":[],"object_type":"PAYLOAD","status":"ACTIVE","operator":null,"country":"US","launch_date":"2025-04-06","launch_site_code":"AFETR","launch_vehicle":null,"mission":null,"orbit_class":"UNKNOWN","rcs_meters":null,"size_class":null,"mass_kg":null,"dimensions":null,"purposes":["comms"],"wikipedia_slug":null,"has_3d_model":false,"image_url":null,"decayed_at":null,"tle_current":{"epoch":"2026-05-25T02:53:21.810048Z","epoch_age_seconds":64966,"freshness":"FRESH","line1":"1 63483U 25070Z   26145.12039132  .00017334  00000+0  63777-3 0  9997","line2":"2 63483  43.0009 188.3014 0001523 252.2274 107.8411 15.27589916 64669","mean_motion":15.27589916,"eccentricity":0.0001523,"inclination_deg":43.0009,"raan_deg":188.3014,"arg_perigee_deg":252.2274,"mean_anomaly_deg":107.8411,"bstar":0.00063777,"rev_number":6466,"period_min":94.266136802647,"perigee_km":481.97445000866,"apogee_km":484.06435824936,"semimajor_km":6861.156404129,"source":"CELESTRAK","updated_at":"2026-05-25T13:38:20.009982Z"}}}